Time,TemperatureF,DewpointF,PressureIn,WindDirection,WindDirectionDegrees,WindSpeedMPH,WindSpeedGustMPH,Humidity,HourlyPrecipIn,Conditions,Clouds,dailyrainin,SoftwareType,DateUTC
2013-11-16 00:01:00,41.0,30.0,-100.00,South,188,2.0,4.0,65,-99.99,,,-99.99,,2013-11-16 08:01:00,
2013-11-16 00:22:00,42.0,31.0,-100.00,SW,224,12.0,18.0,65,-99.99,,,-99.99,,2013-11-16 08:22:00,
2013-11-16 00:41:00,41.0,31.0,-100.00,SSW,192,9.0,15.0,66,-99.99,,,-99.99,,2013-11-16 08:41:00,
2013-11-16 00:52:00,42.0,30.0,-100.00,South,181,9.0,16.0,62,-99.99,,,-99.99,,2013-11-16 08:52:00,
2013-11-16 01:02:00,42.0,30.0,-100.00,South,181,9.0,16.0,62,-99.99,,,-99.99,,2013-11-16 09:02:00,
2013-11-16 01:11:00,42.0,30.0,-100.00,South,181,9.0,16.0,62,-99.99,,,-99.99,,2013-11-16 09:11:00,
2013-11-16 01:22:00,41.0,30.0,-100.00,SSE,155,7.0,11.0,64,-99.99,,,-99.99,,2013-11-16 09:22:00,
2013-11-16 01:42:00,41.0,27.0,-100.00,SW,222,16.0,24.0,58,-99.99,,,-99.99,,2013-11-16 09:42:00,
2013-11-16 01:53:00,41.0,27.0,-100.00,SW,222,16.0,24.0,58,-99.99,,,-99.99,,2013-11-16 09:53:00,
2013-11-16 02:03:00,41.0,27.0,-100.00,SW,222,16.0,24.0,58,-99.99,,,-99.99,,2013-11-16 10:03:00,
2013-11-16 02:23:00,41.0,30.0,-100.00,South,189,9.0,17.0,64,-99.99,,,-99.99,,2013-11-16 10:23:00,
2013-11-16 02:42:00,41.0,27.0,-100.00,SSW,196,9.0,17.0,58,-99.99,,,-99.99,,2013-11-16 10:42:00,
2013-11-16 03:12:00,42.0,26.0,-100.00,WSW,250,20.0,38.0,52,-99.99,,,-99.99,,2013-11-16 11:12:00,
2013-11-16 03:22:00,41.0,29.0,-100.00,WSW,247,24.0,39.0,62,-99.99,,,-99.99,,2013-11-16 11:22:00,
2013-11-16 03:42:00,41.0,30.0,-100.00,WSW,248,23.0,37.0,65,-99.99,,,-99.99,,2013-11-16 11:42:00,
2013-11-16 03:53:00,41.0,30.0,-100.00,WSW,248,23.0,37.0,65,-99.99,,,-99.99,,2013-11-16 11:53:00,
2013-11-16 04:02:00,41.0,30.0,-100.00,WSW,248,23.0,37.0,65,-99.99,,,-99.99,,2013-11-16 12:02:00,
2013-11-16 04:42:00,40.0,28.0,-100.00,SW,236,19.0,30.0,63,-99.99,,,-99.99,,2013-11-16 12:42:00,
2013-11-16 05:11:00,40.0,30.0,-100.00,SW,222,19.0,30.0,66,-99.99,,,-99.99,,2013-11-16 13:11:00,
2013-11-16 05:21:00,40.0,28.0,-100.00,SW,217,18.0,37.0,62,-99.99,,,-99.99,,2013-11-16 13:21:00,
2013-11-16 05:42:00,40.0,27.0,-100.00,WSW,237,17.0,33.0,59,-99.99,,,-99.99,,2013-11-16 13:42:00,
2013-11-16 05:52:00,40.0,27.0,-100.00,WSW,237,17.0,33.0,59,-99.99,,,-99.99,,2013-11-16 13:52:00,
2013-11-16 06:11:00,40.0,26.0,-100.00,SW,223,19.0,29.0,58,-99.99,,,-99.99,,2013-11-16 14:11:00,
2013-11-16 06:22:00,40.0,26.0,-100.00,SW,223,19.0,29.0,58,-99.99,,,-99.99,,2013-11-16 14:22:00,
2013-11-16 06:42:00,41.0,23.0,-100.00,WSW,241,18.0,40.0,48,-99.99,,,-99.99,,2013-11-16 14:42:00,
2013-11-16 06:52:00,41.0,23.0,-100.00,WSW,241,18.0,40.0,48,-99.99,,,-99.99,,2013-11-16 14:52:00,
2013-11-16 07:02:00,41.0,23.0,-100.00,WSW,241,18.0,40.0,48,-99.99,,,-99.99,,2013-11-16 15:02:00,
2013-11-16 07:11:00,41.0,23.0,-100.00,WSW,241,18.0,40.0,48,-99.99,,,-99.99,,2013-11-16 15:11:00,
2013-11-16 07:43:00,41.0,20.0,-100.00,WSW,240,21.0,34.0,42,-99.99,,,-99.99,,2013-11-16 15:43:00,
2013-11-16 07:53:00,41.0,21.0,-100.00,SW,232,14.0,29.0,44,-99.99,,,-99.99,,2013-11-16 15:53:00,
2013-11-16 08:03:00,41.0,21.0,-100.00,SW,232,14.0,29.0,44,-99.99,,,-99.99,,2013-11-16 16:03:00,
2013-11-16 08:23:00,41.0,20.0,-100.00,SSW,208,11.0,19.0,42,-99.99,,,-99.99,,2013-11-16 16:23:00,
2013-11-16 08:43:00,42.0,17.0,-100.00,SW,226,16.0,33.0,36,-99.99,,,-99.99,,2013-11-16 16:43:00,
2013-11-16 09:12:00,42.0,16.0,-100.00,WSW,239,15.0,39.0,34,-99.99,,,-99.99,,2013-11-16 17:12:00,
2013-11-16 09:22:00,43.0,17.0,-100.00,SW,230,18.0,30.0,35,-99.99,,,-99.99,,2013-11-16 17:22:00,
2013-11-16 09:42:00,43.0,19.0,-100.00,SW,232,20.0,34.0,37,-99.99,,,-99.99,,2013-11-16 17:42:00,
2013-11-16 09:52:00,43.0,19.0,-100.00,SW,232,20.0,34.0,37,-99.99,,,-99.99,,2013-11-16 17:52:00,
2013-11-16 10:12:00,45.0,17.0,-100.00,WSW,244,25.0,41.0,32,-99.99,,,-99.99,,2013-11-16 18:12:00,
2013-11-16 10:23:00,45.0,17.0,-100.00,WSW,244,25.0,41.0,32,-99.99,,,-99.99,,2013-11-16 18:23:00,
2013-11-16 10:42:00,45.0,19.0,-100.00,WSW,240,20.0,31.0,35,-99.99,,,-99.99,,2013-11-16 18:42:00,
2013-11-16 11:12:00,46.0,19.0,-100.00,SW,236,13.0,19.0,34,-99.99,,,-99.99,,2013-11-16 19:12:00,
2013-11-16 11:22:00,46.0,20.0,-100.00,WSW,241,15.0,26.0,35,-99.99,,,-99.99,,2013-11-16 19:22:00,
2013-11-16 11:32:00,46.0,20.0,-100.00,WSW,241,15.0,26.0,35,-99.99,,,-99.99,,2013-11-16 19:32:00,
2013-11-16 11:42:00,46.0,20.0,-100.00,WSW,241,15.0,26.0,35,-99.99,,,-99.99,,2013-11-16 19:42:00,
2013-11-16 11:53:00,47.0,21.0,-100.00,WSW,243,17.0,28.0,35,-99.99,,,-99.99,,2013-11-16 19:53:00,
2013-11-16 12:01:00,47.0,21.0,-100.00,WSW,243,17.0,28.0,35,-99.99,,,-99.99,,2013-11-16 20:01:00,
2013-11-16 12:22:00,47.0,21.0,-100.00,WSW,250,19.0,31.0,36,-99.99,,,-99.99,,2013-11-16 20:22:00,
2013-11-16 12:42:00,47.0,24.0,-100.00,WSW,240,18.0,31.0,40,-99.99,,,-99.99,,2013-11-16 20:42:00,
2013-11-16 12:53:00,47.0,24.0,-100.00,WSW,240,18.0,31.0,40,-99.99,,,-99.99,,2013-11-16 20:53:00,
2013-11-16 13:11:00,46.0,24.0,-100.00,WSW,246,19.0,35.0,41,-99.99,,,-99.99,,2013-11-16 21:11:00,
2013-11-16 13:21:00,47.0,25.0,-100.00,WSW,253,13.0,29.0,41,-99.99,,,-99.99,,2013-11-16 21:21:00,
2013-11-16 13:41:00,47.0,26.0,-100.00,SW,222,16.0,25.0,43,-99.99,,,-99.99,,2013-11-16 21:41:00,
2013-11-16 13:44:00,47.0,25.0,-100.00,SW,236,15.0,31.0,42,-99.99,,,-99.99,,2013-11-16 21:44:00,
2013-11-16 13:54:00,48.0,25.0,-100.00,SW,232,11.0,21.0,41,-99.99,,,-99.99,,2013-11-16 21:54:00,
2013-11-16 14:13:00,47.0,26.0,-100.00,SW,222,16.0,25.0,43,-99.99,,,-99.99,,2013-11-16 22:13:00,
2013-11-16 14:24:00,47.0,26.0,-100.00,SW,222,16.0,25.0,43,-99.99,,,-99.99,,2013-11-16 22:24:00,
2013-11-16 14:30:00,47.0,27.0,-100.00,WSW,254,15.0,26.0,45,-99.99,,,-99.99,,2013-11-16 22:30:00,
2013-11-16 14:34:00,47.0,26.0,-100.00,SW,222,16.0,25.0,43,-99.99,,,-99.99,,2013-11-16 22:34:00,
2013-11-16 15:13:00,47.0,27.0,-100.00,WSW,254,15.0,26.0,45,-99.99,,,-99.99,,2013-11-16 23:13:00,
2013-11-16 15:22:00,47.0,27.0,-100.00,WSW,254,15.0,26.0,45,-99.99,,,-99.99,,2013-11-16 23:22:00,
2013-11-16 15:53:00,46.0,27.0,-100.00,WSW,244,11.0,23.0,48,-99.99,,,-99.99,,2013-11-16 23:53:00,
2013-11-16 16:02:00,46.0,27.0,-100.00,WSW,244,11.0,23.0,48,-99.99,,,-99.99,,2013-11-17 00:02:00,
2013-11-16 16:22:00,46.0,28.0,-100.00,WSW,248,16.0,26.0,49,-99.99,,,-99.99,,2013-11-17 00:22:00,
2013-11-16 16:32:00,46.0,28.0,-100.00,WSW,248,16.0,26.0,49,-99.99,,,-99.99,,2013-11-17 00:32:00,
2013-11-16 17:12:00,44.0,28.0,-100.00,WSW,256,15.0,25.0,52,-99.99,,,-99.99,,2013-11-17 01:12:00,
2013-11-16 17:22:00,44.0,28.0,-100.00,WSW,256,15.0,25.0,52,-99.99,,,-99.99,,2013-11-17 01:22:00,
2013-11-16 17:42:00,44.0,29.0,-100.00,SW,230,10.0,17.0,55,-99.99,,,-99.99,,2013-11-17 01:42:00,
2013-11-16 17:52:00,44.0,29.0,-100.00,SW,230,10.0,17.0,55,-99.99,,,-99.99,,2013-11-17 01:52:00,
2013-11-16 18:01:00,44.0,29.0,-100.00,SW,230,10.0,17.0,55,-99.99,,,-99.99,,2013-11-17 02:01:00,
2013-11-16 18:21:00,43.0,26.0,-100.00,WSW,250,10.0,17.0,51,-99.99,,,-99.99,,2013-11-17 02:21:00,
2013-11-16 18:32:00,43.0,26.0,-100.00,WSW,250,10.0,17.0,51,-99.99,,,-99.99,,2013-11-17 02:32:00,
2013-11-16 18:42:00,43.0,26.0,-100.00,WSW,250,10.0,17.0,51,-99.99,,,-99.99,,2013-11-17 02:42:00,
2013-11-16 19:12:00,45.0,27.0,-100.00,WSW,258,20.0,32.0,48,-99.99,,,-99.99,,2013-11-17 03:12:00,
2013-11-16 19:22:00,45.0,27.0,-100.00,WSW,258,20.0,32.0,48,-99.99,,,-99.99,,2013-11-17 03:22:00,
2013-11-16 19:44:00,44.0,27.0,-100.00,WSW,258,23.0,34.0,51,-99.99,,,-99.99,,2013-11-17 03:44:00,
2013-11-16 20:02:00,-999.0,-99.9,-100.00,WSW,253,19.0,27.0,-999,-99.99,,,-99.99,,2013-11-17 04:02:00,
2013-11-16 20:14:00,43.0,27.0,-100.00,WSW,253,19.0,27.0,53,-99.99,,,-99.99,,2013-11-17 04:14:00,
2013-11-16 20:24:00,43.0,28.0,-100.00,WSW,254,20.0,31.0,54,-99.99,,,-99.99,,2013-11-17 04:24:00,
2013-11-16 20:43:00,43.0,28.0,-100.00,WSW,247,16.0,24.0,54,-99.99,,,-99.99,,2013-11-17 04:43:00,
2013-11-16 20:53:00,44.0,28.0,-100.00,WSW,246,18.0,28.0,52,-99.99,,,-99.99,,2013-11-17 04:53:00,
2013-11-16 21:03:00,44.0,28.0,-100.00,WSW,246,18.0,28.0,52,-99.99,,,-99.99,,2013-11-17 05:03:00,
2013-11-16 21:13:00,44.0,28.0,-100.00,WSW,246,18.0,28.0,52,-99.99,,,-99.99,,2013-11-17 05:13:00,
2013-11-16 21:44:00,45.0,28.0,-100.00,WSW,257,23.0,32.0,51,-99.99,,,-99.99,,2013-11-17 05:44:00,
2013-11-16 22:13:00,44.0,28.0,-100.00,WSW,256,14.0,25.0,52,-99.99,,,-99.99,,2013-11-17 06:13:00,
2013-11-16 22:22:00,45.0,27.0,-100.00,WSW,254,14.0,20.0,49,-99.99,,,-99.99,,2013-11-17 06:22:00,
2013-11-16 22:42:00,45.0,27.0,-100.00,WSW,256,12.0,22.0,48,-99.99,,,-99.99,,2013-11-17 06:42:00,
2013-11-16 23:42:00,41.0,30.0,-100.00,South,189,8.0,14.0,64,-99.99,,,-99.99,,2013-11-17 07:42:00,